User: anonymous   Login
Location: Camp Creek
(33.9000°N, 111.8167°W)
Time: 04:54:58
(UTC-07:00)
Language:

Cosmos 2322 Rocket - Orbit

View from above orbital plane
View from above orbital plane
View from above satellite
View from above satellite

Ground track
Ground track

The orbit data is extracted from the following two-line orbital elements,

1 23705U 95058B   15063.20644464 -.00000182  00000-0 -69577-4 0  9990
2 23705 071.0250 342.8959 0010784 141.2773 218.9125 14.15053616998926
Epoch (UTC): 04 March 2015 04:57:16
Eccentricity: 0.0010784
inclination: 71.0250°
perigee height: 834 km
apogee height: 850 km
right ascension of ascending node: 342.8959°
argument of perigee: 141.2773°
revolutions per day: 14.15053616
mean anomaly at epoch: 218.9125°
orbit number at epoch: 99892

The dashed part of the orbit path shows where the satellite is in the earth's shadow,  

DLR